User: anonymous   Login
Location: Slidell
(30.2789°N, 89.7378°W)
Time: 08:07:02
(UTC-05:00)
Language:

Cosmos 2360 Rocket - Orbit

View from above orbital plane
View from above orbital plane
View from above satellite
View from above satellite

Ground track
Ground track

The orbit data is extracted from the following two-line orbital elements,

1 25407U 98045B   16120.53753097 -.00000174  00000-0 -64127-4 0  9991
2 25407  71.0113 190.6890 0005929 128.1182 232.0476 14.15742442917638
Epoch (UTC): 29 April 2016 12:54:02
Eccentricity: 0.0005929
inclination: 71.0113°
perigee height: 835 km
apogee height: 844 km
right ascension of ascending node: 190.6890°
argument of perigee: 128.1182°
revolutions per day: 14.15742442
mean anomaly at epoch: 232.0476°
orbit number at epoch: 91763

The dashed part of the orbit path shows where the satellite is in the earth's shadow,  

DLR